Time,TemperatureF,DewpointF,PressureIn,WindDirection,WindDirectionDegrees,WindSpeedMPH,WindSpeedGustMPH,Humidity,HourlyPrecipIn,Conditions,Clouds,dailyrainin,SoftwareType,DateUTC
2013-07-17 00:00:00,78.5,69.7,30.26,South,186,0.0,0.0,73,0.00,,,-99.99,Meteorologica,2013-07-17 05:00:00,
2013-07-17 00:05:00,78.4,69.9,30.26,South,186,0.0,0.0,74,0.00,,,-99.99,Meteorologica,2013-07-17 05:05:00,
2013-07-17 00:10:00,78.3,70.0,30.26,South,186,0.0,0.0,75,0.00,,,-99.99,Meteorologica,2013-07-17 05:10:00,
2013-07-17 00:15:00,78.1,70.0,30.26,South,186,0.0,0.0,75,0.00,,,-99.99,Meteorologica,2013-07-17 05:15:00,
2013-07-17 00:20:00,78.2,70.0,30.26,South,186,0.0,0.0,75,0.00,,,-99.99,Meteorologica,2013-07-17 05:20:00,
2013-07-17 00:25:00,78.1,70.0,30.27,South,186,0.0,0.0,75,0.00,,,-99.99,Meteorologica,2013-07-17 05:25:00,
2013-07-17 00:30:00,78.1,70.1,30.26,South,186,0.0,0.0,76,0.00,,,-99.99,Meteorologica,2013-07-17 05:30:00,
2013-07-17 00:35:00,77.9,70.0,30.27,South,186,0.0,0.0,76,0.00,,,-99.99,Meteorologica,2013-07-17 05:35:00,
2013-07-17 00:40:00,77.7,70.0,30.26,South,186,0.0,0.0,76,0.00,,,-99.99,Meteorologica,2013-07-17 05:40:00,
2013-07-17 00:45:00,77.5,69.9,30.26,South,186,0.0,0.0,77,0.00,,,-99.99,Meteorologica,2013-07-17 05:45:00,
2013-07-17 00:50:00,77.5,69.8,30.27,South,186,0.0,0.0,77,0.00,,,-99.99,Meteorologica,2013-07-17 05:50:00,
2013-07-17 00:55:00,77.3,69.8,30.27,South,186,0.0,0.0,77,0.00,,,-99.99,Meteorologica,2013-07-17 05:55:00,
2013-07-17 01:00:00,77.1,69.7,30.27,South,186,0.0,0.0,77,0.00,,,-99.99,Meteorologica,2013-07-17 06:00:00,
2013-07-17 01:05:00,77.0,69.7,30.27,South,186,0.0,0.0,77,0.00,,,-99.99,Meteorologica,2013-07-17 06:05:00,
2013-07-17 01:10:00,76.8,69.7,30.27,South,186,0.0,0.0,78,0.00,,,-99.99,Meteorologica,2013-07-17 06:10:00,
2013-07-17 01:15:00,76.8,69.7,30.27,South,186,0.0,0.0,78,0.00,,,-99.99,Meteorologica,2013-07-17 06:15:00,
2013-07-17 01:20:00,76.6,69.6,30.27,South,186,0.0,0.0,78,0.00,,,-99.99,Meteorologica,2013-07-17 06:20:00,
2013-07-17 01:25:00,76.5,69.6,30.27,South,186,0.0,0.0,78,0.00,,,-99.99,Meteorologica,2013-07-17 06:25:00,
2013-07-17 01:30:00,76.4,69.5,30.27,South,186,0.0,0.0,78,0.00,,,-99.99,Meteorologica,2013-07-17 06:30:00,
2013-07-17 01:35:00,76.3,69.4,30.27,South,186,0.0,0.0,78,0.00,,,-99.99,Meteorologica,2013-07-17 06:35:00,
2013-07-17 01:40:00,76.4,69.6,30.27,South,186,0.0,0.0,79,0.00,,,-99.99,Meteorologica,2013-07-17 06:40:00,
2013-07-17 01:45:00,76.1,69.3,30.27,South,186,0.0,0.0,79,0.00,,,-99.99,Meteorologica,2013-07-17 06:45:00,
2013-07-17 01:50:00,76.0,69.3,30.27,South,186,0.0,0.0,79,0.00,,,-99.99,Meteorologica,2013-07-17 06:50:00,
2013-07-17 01:56:00,75.9,69.3,30.27,South,186,0.0,0.0,79,0.00,,,-99.99,Meteorologica,2013-07-17 06:56:00,
2013-07-17 02:01:00,75.8,69.3,30.26,South,186,0.0,0.0,80,0.00,,,-99.99,Meteorologica,2013-07-17 07:01:00,
2013-07-17 02:06:00,75.4,69.1,30.27,South,186,0.0,0.0,80,0.00,,,-99.99,Meteorologica,2013-07-17 07:06:00,
2013-07-17 02:11:00,75.3,69.1,30.27,South,186,0.0,0.0,80,0.00,,,-99.99,Meteorologica,2013-07-17 07:11:00,
2013-07-17 02:16:00,75.2,69.1,30.26,South,186,0.0,0.0,81,0.00,,,-99.99,Meteorologica,2013-07-17 07:16:00,
2013-07-17 02:21:00,75.0,68.9,30.27,South,186,0.0,0.0,81,0.00,,,-99.99,Meteorologica,2013-07-17 07:21:00,
2013-07-17 02:26:00,75.2,69.1,30.27,South,186,0.0,0.0,81,0.00,,,-99.99,Meteorologica,2013-07-17 07:26:00,
2013-07-17 02:31:00,74.8,68.7,30.27,South,186,0.0,0.0,81,0.00,,,-99.99,Meteorologica,2013-07-17 07:31:00,
2013-07-17 02:36:00,74.9,68.8,30.26,South,186,0.0,0.0,81,0.00,,,-99.99,Meteorologica,2013-07-17 07:36:00,
2013-07-17 02:41:00,74.7,68.6,30.27,South,186,0.0,0.0,81,0.00,,,-99.99,Meteorologica,2013-07-17 07:41:00,
2013-07-17 02:46:00,74.6,68.6,30.27,South,186,0.0,0.0,81,0.00,,,-99.99,Meteorologica,2013-07-17 07:46:00,
2013-07-17 02:51:00,74.5,68.6,30.27,South,186,0.0,0.0,81,0.00,,,-99.99,Meteorologica,2013-07-17 07:51:00,
2013-07-17 02:56:00,74.2,68.4,30.27,South,186,0.0,0.0,82,0.00,,,-99.99,Meteorologica,2013-07-17 07:56:00,
2013-07-17 03:01:00,74.2,68.6,30.27,South,186,0.0,0.0,82,0.00,,,-99.99,Meteorologica,2013-07-17 08:01:00,
2013-07-17 03:06:00,74.0,68.4,30.27,South,186,0.0,0.0,82,0.00,,,-99.99,Meteorologica,2013-07-17 08:06:00,
2013-07-17 03:11:00,73.9,68.4,30.27,South,186,0.0,0.0,82,0.00,,,-99.99,Meteorologica,2013-07-17 08:11:00,
2013-07-17 03:16:00,73.9,68.6,30.27,South,186,0.0,0.0,83,0.00,,,-99.99,Meteorologica,2013-07-17 08:16:00,
2013-07-17 03:21:00,73.7,68.4,30.27,South,186,0.0,0.0,83,0.00,,,-99.99,Meteorologica,2013-07-17 08:21:00,
2013-07-17 03:26:00,73.6,68.3,30.27,South,186,0.0,0.0,83,0.00,,,-99.99,Meteorologica,2013-07-17 08:26:00,
2013-07-17 03:31:00,73.4,68.1,30.27,South,186,0.0,0.0,83,0.00,,,-99.99,Meteorologica,2013-07-17 08:31:00,
2013-07-17 03:36:00,73.4,68.0,30.27,South,186,0.0,0.0,83,0.00,,,-99.99,Meteorologica,2013-07-17 08:36:00,
2013-07-17 03:41:00,73.3,68.0,30.27,South,186,0.0,0.0,83,0.00,,,-99.99,Meteorologica,2013-07-17 08:41:00,
2013-07-17 03:46:00,73.3,68.0,30.27,South,186,0.0,0.0,83,0.00,,,-99.99,Meteorologica,2013-07-17 08:46:00,
2013-07-17 03:51:00,73.2,67.8,30.27,South,186,0.0,0.0,83,0.00,,,-99.99,Meteorologica,2013-07-17 08:51:00,
2013-07-17 03:56:00,73.2,68.0,30.27,South,186,0.0,0.0,83,0.00,,,-99.99,Meteorologica,2013-07-17 08:56:00,
2013-07-17 04:01:00,72.9,67.8,30.27,South,186,0.0,0.0,83,0.00,,,-99.99,Meteorologica,2013-07-17 09:01:00,
2013-07-17 04:06:00,72.7,67.7,30.27,South,186,0.0,0.0,84,0.00,,,-99.99,Meteorologica,2013-07-17 09:06:00,
2013-07-17 04:11:00,72.6,67.7,30.27,South,186,0.0,0.0,84,0.00,,,-99.99,Meteorologica,2013-07-17 09:11:00,
2013-07-17 04:17:00,72.5,67.7,30.27,South,186,0.0,0.0,84,0.00,,,-99.99,Meteorologica,2013-07-17 09:17:00,
2013-07-17 04:22:00,72.2,67.6,30.27,South,186,0.0,0.0,85,0.00,,,-99.99,Meteorologica,2013-07-17 09:22:00,
2013-07-17 04:27:00,72.2,67.8,30.27,South,186,0.0,0.0,86,0.00,,,-99.99,Meteorologica,2013-07-17 09:27:00,
2013-07-17 04:32:00,72.3,67.8,30.27,South,186,0.0,0.0,85,0.00,,,-99.99,Meteorologica,2013-07-17 09:32:00,
2013-07-17 04:37:00,72.1,67.7,30.27,South,186,0.0,0.0,86,0.00,,,-99.99,Meteorologica,2013-07-17 09:37:00,
2013-07-17 04:42:00,72.2,67.7,30.27,South,186,0.0,0.0,86,0.00,,,-99.99,Meteorologica,2013-07-17 09:42:00,
2013-07-17 04:47:00,72.1,67.8,30.27,South,186,0.0,0.0,86,0.00,,,-99.99,Meteorologica,2013-07-17 09:47:00,
2013-07-17 04:52:00,72.2,67.9,30.27,South,186,0.0,0.0,86,0.00,,,-99.99,Meteorologica,2013-07-17 09:52:00,
2013-07-17 04:57:00,72.1,67.7,30.27,South,186,0.0,0.0,86,0.00,,,-99.99,Meteorologica,2013-07-17 09:57:00,
2013-07-17 05:02:00,72.1,67.6,30.27,South,186,0.0,0.0,85,0.00,,,-99.99,Meteorologica,2013-07-17 10:02:00,
2013-07-17 05:07:00,71.9,67.4,30.27,South,186,0.0,0.0,85,0.00,,,-99.99,Meteorologica,2013-07-17 10:07:00,
2013-07-17 05:12:00,71.8,67.3,30.28,South,186,0.0,0.0,85,0.00,,,-99.99,Meteorologica,2013-07-17 10:12:00,
2013-07-17 05:17:00,71.7,67.1,30.28,South,186,0.0,0.0,85,0.00,,,-99.99,Meteorologica,2013-07-17 10:17:00,
2013-07-17 05:22:00,71.6,66.9,30.27,South,186,0.0,0.0,85,0.00,,,-99.99,Meteorologica,2013-07-17 10:22:00,
2013-07-17 05:27:00,71.7,67.1,30.27,South,186,0.0,0.0,85,0.00,,,-99.99,Meteorologica,2013-07-17 10:27:00,
2013-07-17 05:32:00,71.7,67.0,30.28,South,186,0.0,0.0,85,0.00,,,-99.99,Meteorologica,2013-07-17 10:32:00,
2013-07-17 05:37:00,71.7,67.0,30.29,South,186,0.0,0.0,85,0.00,,,-99.99,Meteorologica,2013-07-17 10:37:00,
2013-07-17 05:42:00,71.7,67.0,30.28,South,186,0.0,0.0,85,0.00,,,-99.99,Meteorologica,2013-07-17 10:42:00,
2013-07-17 05:47:00,71.5,66.8,30.28,South,186,0.0,0.0,85,0.00,,,-99.99,Meteorologica,2013-07-17 10:47:00,
2013-07-17 05:52:00,71.5,66.8,30.28,South,186,0.0,0.0,85,0.00,,,-99.99,Meteorologica,2013-07-17 10:52:00,
2013-07-17 05:57:00,71.5,66.8,30.28,South,186,0.0,0.0,85,0.00,,,-99.99,Meteorologica,2013-07-17 10:57:00,
2013-07-17 06:02:00,71.5,66.8,30.28,South,186,0.0,0.0,85,0.00,,,-99.99,Meteorologica,2013-07-17 11:02:00,
2013-07-17 06:07:00,71.5,66.8,30.29,South,186,0.0,0.0,85,0.00,,,-99.99,Meteorologica,2013-07-17 11:07:00,
2013-07-17 06:12:00,71.5,66.8,30.29,South,186,0.0,0.0,85,0.00,,,-99.99,Meteorologica,2013-07-17 11:12:00,
2013-07-17 06:17:00,71.4,66.9,30.29,South,186,0.0,0.0,85,0.00,,,-99.99,Meteorologica,2013-07-17 11:17:00,
2013-07-17 06:22:00,71.2,66.7,30.29,South,186,0.0,0.0,85,0.00,,,-99.99,Meteorologica,2013-07-17 11:22:00,
2013-07-17 06:27:00,71.2,66.8,30.29,South,186,0.0,0.0,86,0.00,,,-99.99,Meteorologica,2013-07-17 11:27:00,
2013-07-17 06:32:00,71.1,66.8,30.29,South,186,0.0,0.0,86,0.00,,,-99.99,Meteorologica,2013-07-17 11:32:00,
2013-07-17 06:37:00,71.0,66.8,30.29,South,186,0.0,0.0,86,0.00,,,-99.99,Meteorologica,2013-07-17 11:37:00,
2013-07-17 06:42:00,70.9,66.8,30.29,South,186,0.0,0.0,87,0.00,,,-99.99,Meteorologica,2013-07-17 11:42:00,
2013-07-17 06:47:00,70.8,66.8,30.29,South,186,0.0,0.0,87,0.00,,,-99.99,Meteorologica,2013-07-17 11:47:00,
2013-07-17 06:52:00,70.9,66.9,30.30,South,186,0.0,0.0,87,0.00,,,-99.99,Meteorologica,2013-07-17 11:52:00,
2013-07-17 06:57:00,70.9,66.9,30.30,South,186,0.0,0.0,87,0.00,,,-99.99,Meteorologica,2013-07-17 11:57:00,
2013-07-17 07:02:00,71.0,67.0,30.30,South,186,0.0,0.0,87,0.00,,,-99.99,Meteorologica,2013-07-17 12:02:00,
2013-07-17 07:07:00,71.1,67.0,30.29,South,186,0.0,0.0,87,0.00,,,-99.99,Meteorologica,2013-07-17 12:07:00,
2013-07-17 07:12:00,71.3,67.2,30.30,South,186,0.0,0.0,86,0.00,,,-99.99,Meteorologica,2013-07-17 12:12:00,
2013-07-17 07:17:00,71.5,67.2,30.30,SSE,153,0.0,2.5,86,0.00,,,-99.99,Meteorologica,2013-07-17 12:17:00,
2013-07-17 07:22:00,71.8,67.4,30.30,SSE,153,0.0,0.0,86,0.00,,,-99.99,Meteorologica,2013-07-17 12:22:00,
2013-07-17 07:27:00,71.9,67.5,30.30,SSE,153,0.0,0.0,85,0.00,,,-99.99,Meteorologica,2013-07-17 12:27:00,
2013-07-17 07:32:00,72.0,67.6,30.31,SSE,153,0.0,0.0,85,0.00,,,-99.99,Meteorologica,2013-07-17 12:32:00,
2013-07-17 07:37:00,72.3,67.7,30.31,SSE,153,0.0,0.0,85,0.00,,,-99.99,Meteorologica,2013-07-17 12:37:00,
2013-07-17 07:42:00,72.6,67.8,30.31,SSE,153,0.0,0.0,85,0.00,,,-99.99,Meteorologica,2013-07-17 12:42:00,
2013-07-17 07:47:00,73.0,68.1,30.31,SSE,153,0.0,0.0,84,0.00,,,-99.99,Meteorologica,2013-07-17 12:47:00,
2013-07-17 07:52:00,73.4,67.9,30.31,SSE,153,0.0,0.0,82,0.00,,,-99.99,Meteorologica,2013-07-17 12:52:00,
2013-07-17 07:57:00,73.8,68.1,30.31,SSE,153,0.0,0.0,82,0.00,,,-99.99,Meteorologica,2013-07-17 12:57:00,
2013-07-17 08:02:00,74.1,68.2,30.31,South,170,0.0,4.8,81,0.00,,,-99.99,Meteorologica,2013-07-17 13:02:00,
2013-07-17 08:07:00,74.6,68.2,30.32,South,170,0.0,0.0,80,0.00,,,-99.99,Meteorologica,2013-07-17 13:07:00,
2013-07-17 08:12:00,74.6,68.2,30.32,SSW,203,0.0,5.1,80,0.00,,,-99.99,Meteorologica,2013-07-17 13:12:00,
2013-07-17 08:17:00,75.1,68.6,30.32,South,176,0.8,3.4,79,0.00,,,-99.99,Meteorologica,2013-07-17 13:17:00,
2013-07-17 08:22:00,75.6,68.8,30.32,SW,225,0.0,4.3,79,0.00,,,-99.99,Meteorologica,2013-07-17 13:22:00,
2013-07-17 08:27:00,75.9,68.9,30.32,SW,225,0.0,0.0,78,0.00,,,-99.99,Meteorologica,2013-07-17 13:27:00,
2013-07-17 08:32:00,76.4,69.2,30.32,SSE,156,0.0,3.2,78,0.00,,,-99.99,Meteorologica,2013-07-17 13:32:00,
2013-07-17 08:37:00,76.9,69.6,30.32,South,176,0.0,0.0,77,0.00,,,-99.99,Meteorologica,2013-07-17 13:37:00,
2013-07-17 08:42:00,77.7,69.9,30.32,South,178,0.1,0.0,76,0.00,,,-99.99,Meteorologica,2013-07-17 13:42:00,
2013-07-17 08:47:00,78.4,70.3,30.32,SSE,151,0.0,3.4,75,0.00,,,-99.99,Meteorologica,2013-07-17 13:47:00,
2013-07-17 08:52:00,79.2,70.4,30.32,SSE,151,0.0,0.0,74,0.00,,,-99.99,Meteorologica,2013-07-17 13:52:00,
2013-07-17 08:58:00,80.0,70.7,30.32,SSE,151,0.0,0.0,72,0.00,,,-99.99,Meteorologica,2013-07-17 13:58:00,
2013-07-17 09:03:00,80.2,70.7,30.32,SSE,151,0.0,0.0,72,0.00,,,-99.99,Meteorologica,2013-07-17 14:03:00,
2013-07-17 09:08:00,80.5,70.4,30.32,SSE,151,0.0,0.0,70,0.00,,,-99.99,Meteorologica,2013-07-17 14:08:00,
2013-07-17 09:13:00,81.4,70.3,30.32,West,262,0.0,0.0,68,0.00,,,-99.99,Meteorologica,2013-07-17 14:13:00,
2013-07-17 09:18:00,81.3,69.7,30.33,West,262,0.0,0.0,67,0.00,,,-99.99,Meteorologica,2013-07-17 14:18:00,
2013-07-17 09:23:00,81.7,69.7,30.32,West,262,0.0,0.0,66,0.00,,,-99.99,Meteorologica,2013-07-17 14:23:00,
2013-07-17 09:28:00,82.1,69.5,30.32,SW,227,0.0,0.0,66,0.00,,,-99.99,Meteorologica,2013-07-17 14:28:00,
2013-07-17 09:33:00,82.6,68.7,30.32,NW,307,3.7,4.8,62,0.00,,,-99.99,Meteorologica,2013-07-17 14:33:00,
2013-07-17 09:38:00,83.3,69.7,30.32,South,184,1.2,0.0,63,0.00,,,-99.99,Meteorologica,2013-07-17 14:38:00,
2013-07-17 09:43:00,83.7,68.9,30.32,SW,220,2.2,3.5,60,0.00,,,-99.99,Meteorologica,2013-07-17 14:43:00,
2013-07-17 09:48:00,84.3,68.9,30.32,NNW,331,0.1,0.0,59,0.00,,,-99.99,Meteorologica,2013-07-17 14:48:00,
2013-07-17 09:53:00,84.6,69.0,30.32,SW,221,0.0,0.0,59,0.00,,,-99.99,Meteorologica,2013-07-17 14:53:00,
2013-07-17 09:58:00,84.8,68.9,30.32,South,177,0.5,2.1,58,0.00,,,-99.99,Meteorologica,2013-07-17 14:58:00,
2013-07-17 10:03:00,84.8,68.7,30.31,West,261,1.2,3.5,58,0.00,,,-99.99,Meteorologica,2013-07-17 15:03:00,
2013-07-17 10:08:00,84.8,69.2,30.32,West,269,0.0,0.0,59,0.00,,,-99.99,Meteorologica,2013-07-17 15:08:00,
2013-07-17 10:13:00,85.2,69.0,30.32,West,269,0.0,0.0,57,0.00,,,-99.99,Meteorologica,2013-07-17 15:13:00,
2013-07-17 10:18:00,85.5,69.0,30.32,West,259,0.0,0.0,57,0.00,,,-99.99,Meteorologica,2013-07-17 15:18:00,
2013-07-17 10:23:00,85.8,68.8,30.32,NW,314,1.2,0.0,56,0.00,,,-99.99,Meteorologica,2013-07-17 15:23:00,
2013-07-17 10:28:00,85.8,69.0,30.32,NW,314,0.0,0.0,57,0.00,,,-99.99,Meteorologica,2013-07-17 15:28:00,
2013-07-17 10:33:00,85.7,68.7,30.32,South,189,0.0,0.0,56,0.00,,,-99.99,Meteorologica,2013-07-17 15:33:00,
2013-07-17 10:38:00,86.0,68.7,30.32,SSE,156,1.1,4.4,55,0.00,,,-99.99,Meteorologica,2013-07-17 15:38:00,
2013-07-17 10:43:00,86.3,67.9,30.32,WSW,256,1.6,0.0,53,0.00,,,-99.99,Meteorologica,2013-07-17 15:43:00,
2013-07-17 10:48:00,86.5,68.6,30.32,WSW,256,0.0,0.0,54,0.00,,,-99.99,Meteorologica,2013-07-17 15:48:00,
2013-07-17 10:53:00,87.1,69.1,30.32,WSW,256,0.0,0.0,54,0.00,,,-99.99,Meteorologica,2013-07-17 15:53:00,
2013-07-17 10:58:00,87.2,67.6,30.32,WSW,256,0.0,0.0,52,0.00,,,-99.99,Meteorologica,2013-07-17 15:58:00,
2013-07-17 11:03:00,87.3,68.7,30.32,WNW,298,1.5,3.3,53,0.00,,,-99.99,Meteorologica,2013-07-17 16:03:00,
2013-07-17 11:08:00,87.2,68.5,30.32,WNW,296,0.0,0.0,53,0.00,,,-99.99,Meteorologica,2013-07-17 16:08:00,
2013-07-17 11:13:00,87.1,68.7,30.31,NE,52,0.0,0.0,54,0.00,,,-99.99,Meteorologica,2013-07-17 16:13:00,
2013-07-17 11:18:00,87.5,69.1,30.31,SW,215,4.3,6.0,54,0.00,,,-99.99,Meteorologica,2013-07-17 16:18:00,
2013-07-17 11:23:00,87.7,69.0,30.32,SSE,162,5.0,5.1,53,0.00,,,-99.99,Meteorologica,2013-07-17 16:23:00,
2013-07-17 11:28:00,87.8,69.0,30.31,SSW,199,0.0,0.0,54,0.00,,,-99.99,Meteorologica,2013-07-17 16:28:00,
2013-07-17 11:33:00,87.7,69.0,30.31,SSE,159,3.2,8.9,54,0.00,,,-99.99,Meteorologica,2013-07-17 16:33:00,
2013-07-17 11:38:00,88.0,69.7,30.31,South,176,3.3,5.5,53,0.00,,,-99.99,Meteorologica,2013-07-17 16:38:00,
2013-07-17 11:43:00,88.1,68.9,30.31,SSW,205,3.4,4.3,52,0.00,,,-99.99,Meteorologica,2013-07-17 16:43:00,
2013-07-17 11:48:00,88.0,69.0,30.32,South,186,0.6,0.0,53,0.00,,,-99.99,Meteorologica,2013-07-17 16:48:00,
2013-07-17 11:53:00,88.2,68.7,30.31,WSW,237,0.7,0.0,52,0.00,,,-99.99,Meteorologica,2013-07-17 16:53:00,
2013-07-17 11:58:00,88.7,69.6,30.31,ESE,110,0.0,0.0,53,0.00,,,-99.99,Meteorologica,2013-07-17 16:58:00,
2013-07-17 12:03:00,88.9,69.5,30.31,SSW,196,3.5,0.0,52,0.00,,,-99.99,Meteorologica,2013-07-17 17:03:00,
2013-07-17 12:08:00,88.5,68.8,30.31,SW,215,4.6,10.0,51,0.00,,,-99.99,Meteorologica,2013-07-17 17:08:00,
2013-07-17 12:13:00,88.7,69.7,30.31,SSE,162,0.0,0.0,53,0.00,,,-99.99,Meteorologica,2013-07-17 17:13:00,
2013-07-17 12:19:00,88.5,68.4,30.32,SSW,200,5.8,9.9,51,0.00,,,-99.99,Meteorologica,2013-07-17 17:19:00,
2013-07-17 12:24:00,88.6,69.4,30.31,SE,131,0.0,0.0,52,0.00,,,-99.99,Meteorologica,2013-07-17 17:24:00,
2013-07-17 12:29:00,88.7,69.1,30.32,SW,227,6.5,10.0,52,0.00,,,-99.99,Meteorologica,2013-07-17 17:29:00,
2013-07-17 12:34:00,88.7,70.0,30.31,SSW,197,0.0,0.0,53,0.00,,,-99.99,Meteorologica,2013-07-17 17:34:00,
2013-07-17 12:39:00,89.1,69.4,30.31,SW,223,5.0,7.8,52,0.00,,,-99.99,Meteorologica,2013-07-17 17:39:00,
2013-07-17 12:44:00,89.5,69.1,30.31,SSE,164,7.3,10.4,50,0.00,,,-99.99,Meteorologica,2013-07-17 17:44:00,
2013-07-17 12:49:00,89.7,70.1,30.30,WSW,255,1.9,5.9,52,0.00,,,-99.99,Meteorologica,2013-07-17 17:49:00,
2013-07-17 12:54:00,90.1,69.4,30.30,SSE,168,0.6,4.5,50,0.00,,,-99.99,Meteorologica,2013-07-17 17:54:00,
2013-07-17 12:59:00,90.4,69.8,30.30,SE,141,0.3,2.1,50,0.00,,,-99.99,Meteorologica,2013-07-17 17:59:00,
2013-07-17 13:04:00,90.3,69.6,30.30,WNW,288,5.8,9.5,50,0.00,,,-99.99,Meteorologica,2013-07-17 18:04:00,
2013-07-17 13:09:00,90.0,69.9,30.29,SSW,194,0.0,0.0,51,0.00,,,-99.99,Meteorologica,2013-07-17 18:09:00,
2013-07-17 13:14:00,89.3,69.8,30.29,SSW,211,6.4,11.2,52,0.00,,,-99.99,Meteorologica,2013-07-17 18:14:00,
2013-07-17 13:19:00,89.4,69.1,30.29,SSW,196,2.0,5.8,51,0.00,,,-99.99,Meteorologica,2013-07-17 18:19:00,
2013-07-17 13:24:00,89.8,69.6,30.29,SSW,196,0.0,0.0,51,0.00,,,-99.99,Meteorologica,2013-07-17 18:24:00,
2013-07-17 13:29:00,90.3,69.3,30.29,ENE,74,0.0,0.0,50,0.00,,,-99.99,Meteorologica,2013-07-17 18:29:00,
2013-07-17 13:34:00,90.7,69.1,30.29,South,169,0.4,3.0,49,0.00,,,-99.99,Meteorologica,2013-07-17 18:34:00,
2013-07-17 13:39:00,91.0,68.8,30.29,SSW,201,0.0,3.4,48,0.00,,,-99.99,Meteorologica,2013-07-17 18:39:00,
2013-07-17 13:44:00,91.3,69.4,30.28,South,169,0.4,3.3,48,0.00,,,-99.99,Meteorologica,2013-07-17 18:44:00,
2013-07-17 13:49:00,91.6,70.2,30.29,South,179,2.2,5.6,49,0.00,,,-99.99,Meteorologica,2013-07-17 18:49:00,
2013-07-17 13:54:00,91.4,69.3,30.28,South,185,2.9,7.1,48,0.00,,,-99.99,Meteorologica,2013-07-17 18:54:00,
2013-07-17 13:59:00,91.2,69.7,30.28,SE,139,0.9,3.4,49,0.00,,,-99.99,Meteorologica,2013-07-17 18:59:00,
2013-07-17 14:04:00,91.4,69.0,30.27,NW,311,1.9,5.1,47,0.00,,,-99.99,Meteorologica,2013-07-17 19:04:00,
2013-07-17 14:09:00,91.8,69.2,30.27,SSE,168,6.8,9.9,47,0.00,,,-99.99,Meteorologica,2013-07-17 19:09:00,
2013-07-17 14:14:00,91.7,68.9,30.27,SSW,201,0.6,4.8,47,0.00,,,-99.99,Meteorologica,2013-07-17 19:14:00,
2013-07-17 14:19:00,91.9,69.2,30.27,ESE,105,0.0,0.0,46,0.00,,,-99.99,Meteorologica,2013-07-17 19:19:00,
2013-07-17 14:24:00,92.0,69.2,30.26,SE,125,1.1,7.3,47,0.00,,,-99.99,Meteorologica,2013-07-17 19:24:00,
2013-07-17 14:29:00,91.7,68.0,30.26,SE,143,2.3,7.6,45,0.00,,,-99.99,Meteorologica,2013-07-17 19:29:00,
2013-07-17 14:34:00,91.7,68.8,30.26,SSE,156,5.2,9.9,47,0.00,,,-99.99,Meteorologica,2013-07-17 19:34:00,
2013-07-17 14:39:00,91.8,68.8,30.26,SSE,153,4.3,5.2,46,0.00,,,-99.99,Meteorologica,2013-07-17 19:39:00,
2013-07-17 14:44:00,91.7,67.8,30.26,SW,219,5.4,7.9,45,0.00,,,-99.99,Meteorologica,2013-07-17 19:44:00,
2013-07-17 14:49:00,91.7,67.3,30.26,SW,227,5.4,10.0,44,0.00,,,-99.99,Meteorologica,2013-07-17 19:49:00,
2013-07-17 14:54:00,91.7,66.2,30.25,SSE,148,2.6,6.0,43,0.00,,,-99.99,Meteorologica,2013-07-17 19:54:00,
2013-07-17 14:59:00,92.1,67.0,30.25,South,175,1.7,7.9,43,0.00,,,-99.99,Meteorologica,2013-07-17 19:59:00,
2013-07-17 15:04:00,92.7,66.5,30.25,South,186,3.8,9.9,42,0.00,,,-99.99,Meteorologica,2013-07-17 20:04:00,
2013-07-17 15:09:00,92.6,65.8,30.25,WSW,238,4.9,7.6,41,0.00,,,-99.99,Meteorologica,2013-07-17 20:09:00,
2013-07-17 15:14:00,92.3,67.0,30.24,SSE,167,4.8,9.1,43,0.00,,,-99.99,Meteorologica,2013-07-17 20:14:00,
2013-07-17 15:19:00,92.3,67.7,30.25,SSE,162,4.4,8.7,44,0.00,,,-99.99,Meteorologica,2013-07-17 20:19:00,
2013-07-17 15:24:00,92.4,67.0,30.24,ESE,110,1.1,3.5,43,0.00,,,-99.99,Meteorologica,2013-07-17 20:24:00,
2013-07-17 15:29:00,92.4,67.3,30.24,SSE,161,3.7,7.8,43,0.00,,,-99.99,Meteorologica,2013-07-17 20:29:00,
2013-07-17 15:34:00,92.6,67.9,30.24,ESE,110,4.5,9.9,44,0.00,,,-99.99,Meteorologica,2013-07-17 20:34:00,
2013-07-17 15:40:00,92.7,67.1,30.24,SSW,210,5.5,9.8,43,0.00,,,-99.99,Meteorologica,2013-07-17 20:40:00,
2013-07-17 15:45:00,92.8,68.1,30.24,South,169,0.4,5.0,44,0.00,,,-99.99,Meteorologica,2013-07-17 20:45:00,
2013-07-17 15:50:00,92.6,67.4,30.24,East,93,3.4,9.9,43,0.00,,,-99.99,Meteorologica,2013-07-17 20:50:00,
2013-07-17 15:55:00,92.9,66.5,30.24,SSE,165,2.8,12.2,42,0.00,,,-99.99,Meteorologica,2013-07-17 20:55:00,
2013-07-17 16:00:00,93.0,66.9,30.24,South,187,0.9,4.7,42,0.00,,,-99.99,Meteorologica,2013-07-17 21:00:00,
2013-07-17 16:05:00,92.7,66.9,30.23,SW,235,3.3,11.2,42,0.00,,,-99.99,Meteorologica,2013-07-17 21:05:00,
2013-07-17 16:06:00,92.5,67.0,30.23,South,182,5.1,11.2,43,0.00,,,-99.99,Meteorologica,2013-07-17 21:06:00,
2013-07-17 16:11:00,92.8,66.8,30.24,SSE,159,6.4,9.4,42,0.00,,,-99.99,Meteorologica,2013-07-17 21:11:00,
2013-07-17 16:16:00,92.8,66.7,30.23,SSW,212,2.1,8.5,42,0.00,,,-99.99,Meteorologica,2013-07-17 21:16:00,
2013-07-17 16:21:00,92.8,67.4,30.24,SSE,149,3.6,12.3,43,0.00,,,-99.99,Meteorologica,2013-07-17 21:21:00,
2013-07-17 16:26:00,92.9,68.1,30.23,SSE,156,4.8,9.1,44,0.00,,,-99.99,Meteorologica,2013-07-17 21:26:00,
2013-07-17 16:31:00,93.0,67.9,30.23,South,172,4.2,10.4,43,0.00,,,-99.99,Meteorologica,2013-07-17 21:31:00,
2013-07-17 16:36:00,93.2,67.4,30.23,SW,217,2.8,8.7,42,0.00,,,-99.99,Meteorologica,2013-07-17 21:36:00,
2013-07-17 16:41:00,93.2,67.3,30.22,SSE,167,2.3,8.8,42,0.00,,,-99.99,Meteorologica,2013-07-17 21:41:00,
2013-07-17 16:46:00,93.1,68.0,30.22,East,86,1.5,10.5,43,0.00,,,-99.99,Meteorologica,2013-07-17 21:46:00,
2013-07-17 16:51:00,93.0,67.8,30.22,SE,143,4.8,8.3,43,0.00,,,-99.99,Meteorologica,2013-07-17 21:51:00,
2013-07-17 16:56:00,93.1,68.1,30.22,SSE,158,0.0,0.0,44,0.00,,,-99.99,Meteorologica,2013-07-17 21:56:00,
2013-07-17 17:01:00,92.9,67.6,30.22,WSW,256,2.4,15.9,43,0.00,,,-99.99,Meteorologica,2013-07-17 22:01:00,
2013-07-17 17:06:00,93.0,67.7,30.21,SSE,154,3.8,9.3,43,0.00,,,-99.99,Meteorologica,2013-07-17 22:06:00,
2013-07-17 17:11:00,93.3,67.5,30.21,South,173,3.4,6.9,43,0.00,,,-99.99,Meteorologica,2013-07-17 22:11:00,
2013-07-17 17:16:00,93.3,67.7,30.20,South,173,0.0,7.1,43,0.00,,,-99.99,Meteorologica,2013-07-17 22:16:00,
2013-07-17 17:21:00,93.2,67.5,30.20,SSW,195,6.0,9.7,43,0.00,,,-99.99,Meteorologica,2013-07-17 22:21:00,
2013-07-17 17:26:00,93.4,68.9,30.20,South,184,2.2,5.3,44,0.00,,,-99.99,Meteorologica,2013-07-17 22:26:00,
2013-07-17 17:31:00,93.4,68.1,30.20,SSW,208,4.2,8.8,43,0.00,,,-99.99,Meteorologica,2013-07-17 22:31:00,
2013-07-17 17:36:00,93.3,67.3,30.20,SSE,165,3.7,7.3,42,0.00,,,-99.99,Meteorologica,2013-07-17 22:36:00,
2013-07-17 17:41:00,92.7,67.1,30.20,WSW,242,7.9,13.5,43,0.00,,,-99.99,Meteorologica,2013-07-17 22:41:00,
2013-07-17 17:46:00,92.7,68.2,30.20,East,80,1.8,9.1,44,0.00,,,-99.99,Meteorologica,2013-07-17 22:46:00,
2013-07-17 17:51:00,92.9,68.7,30.20,SE,138,0.8,6.1,45,0.00,,,-99.99,Meteorologica,2013-07-17 22:51:00,
2013-07-17 17:56:00,92.6,68.9,30.20,South,184,1.9,8.7,46,0.00,,,-99.99,Meteorologica,2013-07-17 22:56:00,
2013-07-17 18:01:00,92.5,69.2,30.19,South,179,0.4,4.4,46,0.00,,,-99.99,Meteorologica,2013-07-17 23:01:00,
2013-07-17 18:06:00,92.5,68.6,30.20,SW,214,5.8,9.2,45,0.00,,,-99.99,Meteorologica,2013-07-17 23:06:00,
2013-07-17 18:11:00,92.4,68.9,30.19,South,191,2.0,7.2,46,0.00,,,-99.99,Meteorologica,2013-07-17 23:11:00,
2013-07-17 18:16:00,92.7,69.4,30.19,SE,124,0.7,3.2,46,0.00,,,-99.99,Meteorologica,2013-07-17 23:16:00,
2013-07-17 18:21:00,92.4,68.7,30.19,SSE,165,1.9,7.2,46,0.00,,,-99.99,Meteorologica,2013-07-17 23:21:00,
2013-07-17 18:26:00,92.2,69.2,30.19,SSW,206,0.0,8.2,47,0.00,,,-99.99,Meteorologica,2013-07-17 23:26:00,
2013-07-17 18:31:00,92.2,68.5,30.19,SSW,207,2.2,9.4,45,0.00,,,-99.99,Meteorologica,2013-07-17 23:31:00,
2013-07-17 18:36:00,92.3,67.9,30.19,SSW,202,3.0,7.6,45,0.00,,,-99.99,Meteorologica,2013-07-17 23:36:00,
2013-07-17 18:41:00,92.4,68.5,30.19,South,184,2.9,8.7,45,0.00,,,-99.99,Meteorologica,2013-07-17 23:41:00,
2013-07-17 18:46:00,92.2,68.8,30.18,South,176,1.3,8.6,46,0.00,,,-99.99,Meteorologica,2013-07-17 23:46:00,
2013-07-17 18:51:00,92.2,68.2,30.18,South,182,0.4,9.9,45,0.00,,,-99.99,Meteorologica,2013-07-17 23:51:00,
2013-07-17 18:56:00,92.0,67.9,30.18,SW,216,5.5,8.4,45,0.00,,,-99.99,Meteorologica,2013-07-17 23:56:00,
2013-07-17 19:01:00,92.1,68.0,30.19,SSW,206,1.9,6.9,45,0.00,,,-99.99,Meteorologica,2013-07-18 00:01:00,
2013-07-17 19:06:00,91.9,67.5,30.18,South,188,3.9,9.2,44,0.00,,,-99.99,Meteorologica,2013-07-18 00:06:00,
2013-07-17 19:11:00,91.6,67.0,30.18,SSW,193,5.8,8.4,44,0.00,,,-99.99,Meteorologica,2013-07-18 00:11:00,
2013-07-17 19:16:00,91.2,67.1,30.18,SW,216,4.5,8.0,45,0.00,,,-99.99,Meteorologica,2013-07-18 00:16:00,
2013-07-17 19:21:00,91.2,67.7,30.18,SSE,153,1.4,8.9,46,0.00,,,-99.99,Meteorologica,2013-07-18 00:21:00,
2013-07-17 19:26:00,91.4,67.6,30.18,South,176,2.8,7.6,45,0.00,,,-99.99,Meteorologica,2013-07-18 00:26:00,
2013-07-17 19:31:00,91.3,67.9,30.18,South,184,0.7,6.0,46,0.00,,,-99.99,Meteorologica,2013-07-18 00:31:00,
2013-07-17 19:36:00,91.3,68.3,30.18,SSE,162,0.0,3.5,47,0.00,,,-99.99,Meteorologica,2013-07-18 00:36:00,
2013-07-17 19:37:00,91.2,68.5,30.18,SSE,162,0.0,3.5,47,0.00,,,-99.99,Meteorologica,2013-07-18 00:37:00,
2013-07-17 19:42:00,91.0,67.8,30.18,South,190,4.1,7.3,46,0.00,,,-99.99,Meteorologica,2013-07-18 00:42:00,
2013-07-17 19:47:00,90.8,68.0,30.18,South,186,1.7,7.2,47,0.00,,,-99.99,Meteorologica,2013-07-18 00:47:00,
2013-07-17 19:52:00,90.6,68.3,30.18,SE,131,0.0,6.1,47,0.00,,,-99.99,Meteorologica,2013-07-18 00:52:00,
2013-07-17 19:57:00,90.3,68.2,30.18,SSE,167,3.5,8.2,48,0.00,,,-99.99,Meteorologica,2013-07-18 00:57:00,
2013-07-17 20:02:00,90.2,68.9,30.18,SSE,163,0.0,2.6,49,0.00,,,-99.99,Meteorologica,2013-07-18 01:02:00,
2013-07-17 20:07:00,89.8,68.9,30.18,SSE,163,0.0,0.0,50,0.00,,,-99.99,Meteorologica,2013-07-18 01:07:00,
2013-07-17 20:12:00,89.7,69.1,30.18,South,176,0.0,5.5,50,0.00,,,-99.99,Meteorologica,2013-07-18 01:12:00,
2013-07-17 20:18:00,89.2,68.8,30.18,South,187,0.0,0.0,50,0.00,,,-99.99,Meteorologica,2013-07-18 01:18:00,
2013-07-17 20:23:00,88.9,68.7,30.18,SSE,158,0.0,3.5,51,0.00,,,-99.99,Meteorologica,2013-07-18 01:23:00,
2013-07-17 20:28:00,88.7,68.8,30.17,South,186,0.0,5.0,51,0.00,,,-99.99,Meteorologica,2013-07-18 01:28:00,
2013-07-17 20:33:00,88.6,69.0,30.18,SSW,199,0.0,3.2,52,0.00,,,-99.99,Meteorologica,2013-07-18 01:33:00,
2013-07-17 20:38:00,88.3,69.0,30.18,SSW,199,0.0,0.0,52,0.00,,,-99.99,Meteorologica,2013-07-18 01:38:00,
2013-07-17 20:43:00,88.1,69.3,30.18,SSW,199,0.0,0.0,53,0.00,,,-99.99,Meteorologica,2013-07-18 01:43:00,
2013-07-17 20:48:00,87.7,69.1,30.18,SSW,199,0.0,0.0,53,0.00,,,-99.99,Meteorologica,2013-07-18 01:48:00,
2013-07-17 20:53:00,87.5,69.1,30.17,SSE,158,0.0,0.0,54,0.00,,,-99.99,Meteorologica,2013-07-18 01:53:00,
2013-07-17 20:58:00,87.3,69.1,30.18,SSE,158,0.0,0.0,54,0.00,,,-99.99,Meteorologica,2013-07-18 01:58:00,
2013-07-17 21:03:00,87.0,69.2,30.17,SSE,158,0.0,0.0,55,0.00,,,-99.99,Meteorologica,2013-07-18 02:03:00,
2013-07-17 21:08:00,86.7,69.3,30.17,SSE,158,0.0,0.0,55,0.00,,,-99.99,Meteorologica,2013-07-18 02:08:00,
2013-07-17 21:13:00,86.4,69.4,30.18,SSE,158,0.0,0.0,56,0.00,,,-99.99,Meteorologica,2013-07-18 02:13:00,
2013-07-17 21:18:00,85.9,69.5,30.17,SSE,158,0.0,0.0,57,0.00,,,-99.99,Meteorologica,2013-07-18 02:18:00,
2013-07-17 21:23:00,85.4,69.6,30.17,SSE,158,0.0,0.0,58,0.00,,,-99.99,Meteorologica,2013-07-18 02:23:00,
2013-07-17 21:28:00,84.9,69.6,30.17,SSE,158,0.0,0.0,59,0.00,,,-99.99,Meteorologica,2013-07-18 02:28:00,
2013-07-17 21:33:00,84.5,69.6,30.18,SSE,158,0.0,0.0,60,0.00,,,-99.99,Meteorologica,2013-07-18 02:33:00,
2013-07-17 21:38:00,84.4,69.7,30.18,SSE,158,0.0,0.0,61,0.00,,,-99.99,Meteorologica,2013-07-18 02:38:00,
2013-07-17 21:43:00,84.0,69.6,30.18,SSE,158,0.0,0.0,61,0.00,,,-99.99,Meteorologica,2013-07-18 02:43:00,
2013-07-17 21:48:00,83.8,69.7,30.18,SSE,158,0.0,0.0,62,0.00,,,-99.99,Meteorologica,2013-07-18 02:48:00,
2013-07-17 21:53:00,83.4,69.7,30.17,SSE,158,0.0,0.0,62,0.00,,,-99.99,Meteorologica,2013-07-18 02:53:00,
2013-07-17 21:59:00,83.2,69.9,30.18,SSE,158,0.0,0.0,63,0.00,,,-99.99,Meteorologica,2013-07-18 02:59:00,
2013-07-17 22:04:00,82.8,69.8,30.18,SSE,158,0.0,0.0,64,0.00,,,-99.99,Meteorologica,2013-07-18 03:04:00,
2013-07-17 22:09:00,82.4,69.6,30.18,SSE,158,0.0,0.0,64,0.00,,,-99.99,Meteorologica,2013-07-18 03:09:00,
2013-07-17 22:14:00,82.2,69.6,30.18,SSE,158,0.0,0.0,65,0.00,,,-99.99,Meteorologica,2013-07-18 03:14:00,
2013-07-17 22:19:00,82.2,69.7,30.18,SSE,158,0.0,0.0,65,0.00,,,-99.99,Meteorologica,2013-07-18 03:19:00,
2013-07-17 22:24:00,82.0,69.6,30.18,SSE,158,0.0,0.0,65,0.00,,,-99.99,Meteorologica,2013-07-18 03:24:00,
2013-07-17 22:29:00,81.9,69.5,30.18,SSE,158,0.0,0.0,65,0.00,,,-99.99,Meteorologica,2013-07-18 03:29:00,
2013-07-17 22:34:00,81.7,69.4,30.19,SSE,158,0.0,0.0,65,0.00,,,-99.99,Meteorologica,2013-07-18 03:34:00,
2013-07-17 22:39:00,81.7,69.5,30.18,SSE,158,0.0,0.0,66,0.00,,,-99.99,Meteorologica,2013-07-18 03:39:00,
2013-07-17 22:44:00,81.6,69.4,30.19,SSE,158,0.0,0.0,66,0.00,,,-99.99,Meteorologica,2013-07-18 03:44:00,
2013-07-17 22:49:00,81.5,69.3,30.19,SSE,158,0.0,0.0,66,0.00,,,-99.99,Meteorologica,2013-07-18 03:49:00,
2013-07-17 22:54:00,81.4,69.3,30.19,SSE,158,0.0,0.0,66,0.00,,,-99.99,Meteorologica,2013-07-18 03:54:00,
2013-07-17 22:59:00,81.3,69.3,30.19,SSE,158,0.0,0.0,66,0.00,,,-99.99,Meteorologica,2013-07-18 03:59:00,
2013-07-17 23:02:00,81.4,69.5,30.18,SSE,158,0.0,0.0,66,0.00,,,-99.99,Meteorologica,2013-07-18 04:02:00,
2013-07-17 23:03:00,81.4,69.5,30.19,SSE,158,0.0,0.0,66,0.00,,,-99.99,Meteorologica,2013-07-18 04:03:00,
2013-07-17 23:04:00,81.3,69.5,30.19,SSE,158,0.0,0.0,66,0.00,,,-99.99,Meteorologica,2013-07-18 04:04:00,
2013-07-17 23:09:00,80.8,69.2,30.19,SSE,158,0.0,0.0,67,0.00,,,-99.99,Meteorologica,2013-07-18 04:09:00,
2013-07-17 23:11:00,80.9,69.4,30.18,SSE,158,0.0,0.0,67,0.00,,,-99.99,Meteorologica,2013-07-18 04:11:00,
2013-07-17 23:16:00,80.7,69.3,30.18,SSE,158,0.0,0.0,67,0.00,,,-99.99,Meteorologica,2013-07-18 04:16:00,
2013-07-17 23:21:00,80.4,69.2,30.18,SSE,158,0.0,0.0,68,0.00,,,-99.99,Meteorologica,2013-07-18 04:21:00,
2013-07-17 23:26:00,80.4,69.3,30.18,SSE,158,0.0,0.0,68,0.00,,,-99.99,Meteorologica,2013-07-18 04:26:00,
2013-07-17 23:31:00,80.4,69.2,30.18,SSE,158,0.0,0.0,68,0.00,,,-99.99,Meteorologica,2013-07-18 04:31:00,
2013-07-17 23:36:00,80.3,69.1,30.18,SSE,158,0.0,0.0,68,0.00,,,-99.99,Meteorologica,2013-07-18 04:36:00,
2013-07-17 23:41:00,80.4,69.0,30.18,SSE,158,0.0,0.0,67,0.00,,,-99.99,Meteorologica,2013-07-18 04:41:00,
2013-07-17 23:46:00,80.5,68.9,30.18,SSE,158,0.0,0.0,67,0.00,,,-99.99,Meteorologica,2013-07-18 04:46:00,
2013-07-17 23:51:00,80.3,68.7,30.18,SSW,210,0.0,4.7,67,0.00,,,-99.99,Meteorologica,2013-07-18 04:51:00,
2013-07-17 23:56:00,80.4,68.9,30.18,SSW,210,0.0,0.0,67,0.00,,,-99.99,Meteorologica,2013-07-18 04:56:00,